Regional Weather Roundup
Issued by NWS Jackson, KY

Home | Current Version | Previous Version | Graphics & Text | Print | Product List | Glossary On
Versions: 1 2 3 4 5 6 7 8 9 10 11 12 13 14 15 16 17 18 19 20 21 22 23 24 25 26 27 28 29 30 31 32 33 34 35 36 37 38 39 40 41 42 43 44 45 46 47 48 49 50
000
ASUS43 KJKL 280810
RWRJKL

EAST KENTUCKY HOURLY WEATHER ROUNDUP
NATIONAL WEATHER SERVICE JACKSON KY
300 AM EST SAT FEB 28 2015

NOTE: "FAIR" INDICATES FEW OR NO CLOUDS BELOW 12,000 FEET WITH
NO SIGNIFICANT WEATHER AND/OR OBSTRUCTIONS TO VISIBILITY.

* THESE REPORTS ARE NOT UNDER NWS QUALITY CONTROL AND MAY NOT
  REPORT WEATHER SUCH AS PRECIPITATION AND FOG.

KYZ079-080-083-085-087-088-110-112-115-119-120-280900
...EASTERN KENTUCKY...

CITY           SKY/WX    TMP DP  RH WIND       PRES   REMARKS
JACKSON        CLOUDY    18   6  59 VRB6      30.57F WCI  10
LONDON         CLOUDY    20   6  55 NE6       30.57S WCI  12
SOMERSET*      CLOUDY    19   9  63 E3        30.61S
MONTICELLO*    MOCLDY    20   9  62 NE7       30.61S WCI  11
MIDDLESBORO*   CLOUDY    23  12  62 CALM      30.56S
HAZARD APT*    CLOUDY    21  10  63 CALM      30.58F
BLACK MTN*       N/A     18   5  57 S5          N/A  WCI  11
PIKEVILLE APT* CLOUDY    18   9  68 NE6       30.58R WCI   9
BIG SANDY*     CLOUDY    19   8  63 NE5       30.61S WCI  12
MOREHEAD APT*  CLOUDY    16   0  48 E8        30.65F WCI   5
$$

KYZ035-036-041-042-044-050-067-078-099-280900
...CENTRAL KENTUCKY...

CITY           SKY/WX    TMP DP  RH WIND       PRES   REMARKS
MT STERLING*   CLOUDY    18   5  57 E10       30.63F WCI   6
FLEMING/MASON* CLEAR     10   1  67 E6        30.66F WCI   1
DANVILLE*      CLOUDY    18   7  62 NE7       30.61F WCI   8
RICHMOND*      CLOUDY    18   5  57 NE6       30.60S WCI   9
LEXINGTON      MOCLDY    17   4  56 E12       30.63R WCI   4
FRANKFORT        N/A     16   3  56 E7        30.64R WCI   6
$$

KYZ091>093-OHZ055-061-077-WVZ005-015-034-035-042-280900
...SOUTHERN OHIO/WEST VIRGINIA...

CITY           SKY/WX    TMP DP  RH WIND       PRES   REMARKS
COVINGTON      PTCLDY    12   1  61 E7        30.65  WCI   1
COLUMBUS       MOCLDY     3  -4  72 CALM      30.70R
DAYTON         MOCLDY     7  -1  70 E5        30.67S WCI  -2
WILMINGTON     PTCLDY     4  -5  66 E5        30.65F WCI  -5
HUNTINGTON     CLEAR     14   3  61 NE6       30.66S WCI   5
CHARLESTON     MOCLDY    16   4  59 NE5       30.66R WCI   9
PINEVILLE*       N/A     10   9  93 MISG      30.62R
BECKLEY        PTCLDY     6   0  76 CALM      30.51R
BLUEFIELD      MOCLDY    12   3  67 E5        30.47F WCI   4
$$

VAZ002-007-008-TNZ017-027-036-066-071-280900
...SOUTHWEST VIRGINIA/EAST TENNESSEE...

CITY           SKY/WX    TMP DP  RH WIND       PRES   REMARKS
WISE*          CLOUDY    16   9  73 NE3       30.48S
JONESVILLE*    CLOUDY    19  10  68 E3        30.56S
ABINGDON*      PTCLDY    19  10  66 E6        30.50S WCI  11
BRISTOL        CLOUDY    18  13  80 CALM      30.53S
KNOXVILLE      MOCLDY    24  13  62 NE6       30.53S WCI  17
OAK RIDGE      CLOUDY    27  11  51 VRB6      30.55S WCI  20
CROSSVILLE     CLOUDY    20  10  65 NE7       30.48S WCI  11
NASHVILLE      CLOUDY    25   9  50 E7        30.56F WCI  17
$$

...KEY TO REMARKS...
VSB - VISIBILITY IN MILES
WCI - WIND CHILL INDEX
HX  - HEAT INDEX

$$


USA.gov is the U.S. government's official web portal to all federal, state and local government web resources and services.